Orbital Elements
Epoch 2018 July 21.0 TT = JDT 2458320.5
T 2018 July 15.49797 TT Rudenko
q 1.4296056 (2000.0) P Q
n 0.14618284 Peri. 332.88787 -0.05172985 -0.95687533
a 3.5689335 Node 118.82432 +0.96518837 -0.12139110
e 0.5994306 Incl. 19.04323 +0.25638921 +0.26392007
P 6.74
From 3418 observations 1963 Oct. 18-2020 July 20, mean residual 0".6.
Nongravitational parameters A1 = +0.02, A2 = -0.0005.
|